Regional Weather Roundup
Issued by NWS Grand Forks, ND

Home | Current Version | Previous Version | Graphics & Text | Print | Product List | Glossary On
Versions: 1 2 3 4 5 6 7 8 9 10 11 12 13 14 15 16 17 18 19 20 21 22 23 24 25 26 27 28 29 30 31 32 33 34 35 36 37 38 39 40 41 42 43 44 45 46 47 48 49 50
000
ASUS43 KFGF 301331
RWRFGF
PRAIRIE TO PINES  WEATHER ROUNDUP
NATIONAL WEATHER SERVICE EASTERN NORTH DAKOTA/GRAND FORKS ND
800 AM CDT TUE SEP 30 2014

 **SATELLITE DATA USED TO AUGMENT SKY COVER AT AUTOMATED STATIONS**
 *****  WEATHER ACROSS EASTERN NORTH DAKOTA  *****

CITY           SKY/WX    TMP DP  RH WIND       PRES   REMARKS
GRAND FORKS    MOCLDY    45  41  87 SE14      29.94F
GRAND FRKS AFB CLOUDY    42  41  99 SE8       29.95R
GRAND FRKS NWS   N/A     41 N/A N/A SE7         N/A
DEVILS LAKE    CLOUDY    46  39  76 SE16      29.84F
FARGO          CLOUDY    46  42  86 SE12      29.94F
WAHPETON ARPT  CLOUDY    43  41  93 SE16G23   29.94F
$$

 ***** WEATHER ACROSS CENTRAL AND WESTERN NORTH DAKOTA  *****

CITY           SKY/WX    TMP DP  RH WIND       PRES   REMARKS
BISMARCK       CLOUDY    54  50  86 E14       29.74F
MINOT          CLOUDY    49  47  93 E14       29.76F FOG
JAMESTOWN      CLOUDY    46  43  89 SE15      29.83F
MINOT AFB      CLOUDY    49  49 100 SE16      29.76F FOG
GARRISON         N/A     53  51  93 SE10      29.75S
WILLISTON      RAIN      52  51  97 SE5       29.71F FOG
DICKINSON      LGT RAIN  51  51 100 E12       29.66F
HETTINGER      RAIN      53  52  96 E15       29.64F FOG
$$

 *****  OTHER AIRPORT OBSERVATIONS IN OUR AREA  *****

CITY           SKY/WX    TMP DP  RH WIND       PRES   REMARKS
WALHALLA       CLOUDY    41  41 100 SE10      29.93F
GRAFTON AIRPOR FAIR      39  39 100 SE10      29.95F
VALLEY CITY AR CLOUDY    45  45 100 SE14G25   29.87F
CANDO          CLOUDY    46  45  93 SE16G24   29.85F
CAVALIER APRT  CLOUDY    41  41 100 SE6       29.95F
GWINNER        CLOUDY    46  45  93 SE17G25   29.87F
ROLLA          CLOUDY    45  45 100 SE15      29.85F
 ***** THE ABOVE OBSERVATIONS ARE NON NWS ARE NOT QUALITY
       CONTROLLED AND MAY MIS-REPORT RAIN FOR SNOW...
$$

  *****  WEATHER ACROSS NORTHERN MINNESOTA  *****

CITY           SKY/WX    TMP DP  RH WIND       PRES   REMARKS
FLAG ISLAND    CLOUDY    45  41  87 SE7G16    30.04F
WARROAD        CLOUDY    45  39  81 SE13G20   30.03F
ROSEAU         CLOUDY    45  39  81 SE14      30.02S
HALLOCK        CLOUDY    43  43 100 SE10      29.97F
THF RVR FALLS  CLOUDY    43  41  93 SE14      29.99S
BAUDETTE       CLOUDY    43  40  89 SE12G21   30.04F
WASKISH        CLOUDY    43  39  87 E3        30.05S
CROOKSTON      CLEAR     43  39  87 SE12      29.97F
STEPHEN NDAWN    N/A     43  43 100 SE12        N/A
GREENBUSH NDAW   N/A     45  45 100 SE7         N/A
$$
  *****  WEATHER ACROSS CENTRAL AND WEST MINNESOTA  *****

CITY           SKY/WX    TMP DP  RH WIND       PRES   REMARKS
FOSSTON        CLOUDY    41  39  93 SE14      30.00S
BEMIDJI        CLOUDY    42  40  93 SE15      30.02S
PARK RAPIDS    CLOUDY    41  38  89 SE14      30.03S
ELBOW LAKE     CLOUDY    42  41  96 E16G23    29.96F
WADENA         CLOUDY    39  37  93 SE15      30.01F
DETROIT LAKES  CLOUDY    43  41  93 SE12      29.98F
MOORHEAD       NOT AVBL
FERGUS FALLS   CLOUDY    45  41  87 E12G18    29.97S
MORRIS MN      MOCLDY    45  43  93 SE17G23   29.95F
STAPLES        CLOUDY    39  37  93 SE8       30.04F
$$
  *****  WEATHER ELSEWHERE ACROSS MINNESOTA  *****

CITY           SKY/WX    TMP DP  RH WIND       PRES   REMARKS
DULUTH         CLOUDY    42  38  85 E14       30.11F
INTRNTL FALLS  CLOUDY    42  39  89 SE9       30.09F
ELY            CLOUDY    37  36  93 SE6       30.14S
CLOQUET        CLOUDY    43  39  87 E8G16     30.10S
WHEATON        CLOUDY    43  39  87 E17       29.95S
BRAINERD       CLOUDY    42  40  92 SE8       30.06S
HIBBING        CLOUDY    42  38  85 E9        30.11F
ALEXANDRIA     CLOUDY    40  39  97 E14       30.01S FOG
SAINT CLOUD    CLOUDY    44  40  85 E7        30.06S
MINNEAPOLIS    CLOUDY    42  39  89 E13       30.07F
$$

  *****  WEATHER ACROSS SOUTH DAKOTA  *****

CITY           SKY/WX    TMP DP  RH WIND       PRES   REMARKS
SIOUX FALLS    CLOUDY    53  50  89 SE14      29.86F
BROOKINGS      NOT AVBL
WATERTOWN      CLOUDY    47  45  93 SE14G22   29.86F
HURON          CLOUDY    56  50  80 SE14G23   29.75F
SISSETON         N/A     45  43  93 SE10      29.91F
ABERDEEN       MOCLDY    52  48  86 E12       29.78F
MITCHELL       CLOUDY    56  52  86 SE16G25   29.76F
PIERRE         CLOUDY    57  56  96 E29G36    29.57F
MOBRIDGE       LGT RAIN  54  51  90 E18G29    29.64F
RAPID CITY     LGT RAIN  56  55  97 N17       29.44F VSB 1
$$

  *****  SOME WEATHER IN NEARBY STATES *****

CITY           SKY/WX    TMP DP  RH WIND       PRES   REMARKS
GLASGOW MT     CLOUDY    51  49  92 SE9       29.64F
GREAT FALLS MT CLOUDY    52  45  77 SW12      29.68F
CHEYENNE WY    CLOUDY    49  35  58 W22G31    29.84R
SCOTTSBLUFF NE CLOUDY    55  45  68 W22G29    29.67F
OMAHA NE       CLOUDY    64  58  80 SE9       29.88S
DES MOINES IA  CLOUDY    59  56  89 VRB3      29.97S FOG
DAVENPORT IA   NOT AVBL
CHICAGO IL     CLOUDY    48  45  89 N9        30.06R
EAU CLAIRE WI  CLOUDY    41  36  82 E9        30.10F
LA CROSSE WI   CLOUDY    46  40  79 E13       30.09F
$$

  *****  SOME NATIONAL WEATHER *****

CITY           SKY/WX    TMP DP  RH WIND       PRES   REMARKS
LA GUARDIA NY  CLOUDY    68  63  84 NE9       29.97R
RALEIGH NC     CLOUDY    64  61  88 N3        29.96R FOG
ATLANTA GA     MOSUNNY   68  63  83 E8        29.98R
NEW ORLEANS LA MOSUNNY   77  72  84 E6        29.89R
OKLAHOMA CITY  MOCLDY    63  59  87 S5        29.92S
ALBUQUERQUE NM CLEAR     50  35  56 CALM      30.06R
SALT LAKE CITY CLOUDY    53  49  86 E7        29.96F
LOS ANGELES CA CLEAR     62  57  83 E5        29.86R
BOISE ID       LGT RAIN  54  52  94 CALM      29.93R
SEATTLE WA     CLOUDY    55  51  86 SW7       30.04R
$$

*** WEATHER ACROSS MANITOBA...SASKATCHEWAN AND ONTARIO ***
                ***ONTARIO***

CITY           SKY/WX    TMP DP  RH WIND       PRES   REMARKS
GERALDTON      SUNNY     30  30 100 CALM      30.19
THUNDER BAY    PTCLDY    34  34 100 W2        30.20R
SIOUX LOOKOUT  CLOUDY    37  37 100 SE5       30.14S FOG
TORONTO        CLOUDY    63  59  88 SE7       29.87F FOG
BIG TROUT LK   CLOUDY    41  37  87 W8        30.09S
PICKLE LAKE    DRIZZLE   37  36  93 W7        30.13S FOG
DRYDEN         CLOUDY    39  37  93 SE9       30.12F
KENORA         CLOUDY    43  39  87 SE9       30.07F
$$
                *** MANITOBA***

CITY           SKY/WX    TMP DP  RH WIND       PRES   REMARKS
BRANDON        CLOUDY    48  45  87 E12       29.85
DAUPHIN        CLOUDY    45  43  93 CALM      29.84F
ISLAND LAKE    CLOUDY    46  41  81 S7        30.00F
PILOT MOUND      N/A     45  43  93 SE15G22     N/A
THE PAS        MOCLDY    45  43  93 SE12      29.78F
THOMPSON       PTCLDY    36  36 100 S6        29.88F
WINNIPEG       CLOUDY    45  43  93 SE16G23   29.98F
LYNN LAKE      CLOUDY    41  39  93 S8        29.73F
CHURCHILL      CLOUDY    39  37  93 E14G20    29.97S
GILLAM         MOCLDY    41  41 100 S5        29.95R
$$
                ***SASKATCHEWAN***

CITY           SKY/WX    TMP DP  RH WIND       PRES   REMARKS
ESTEVAN        LGT RAIN  50  50 100 SE10      29.74F
KINDERSLEY     MOCLDY    48  46  93 SE9       29.53F
LLOYDMINSTER   LGT RAIN  48  46  93 S6        29.54S
PRINCE ALBERT  CLOUDY    52  46  82 S10       29.63
REGINA         DRIZZLE   50  50 100 SE16      29.69  FOG
YORKTON        LGT RAIN  48  46  93 SE14G20   29.75F FOG
N. BATTLEFORD  CLOUDY    48  46  93 SE9       29.58F
LA RONGE       CLOUDY    48  45  87 S10       29.64F
SASKATOON      DRIZZLE   52  48  87 S12       29.60F
SWIFT CURRENT  CLOUDY    50  48  93 S21G28    29.57R
$$
NOTE: THESE ARE AUTOMATED STATIONS WITH LIMITED QUALITY CONTROL
      "FAIR" INDICATES FEW OR NO CLOUDS BELOW 12,000 FEET WITH NO
      SIGNIFICANT WEATHER AND/OR OBSTRUCTIONS TO VISIBILITY.
      SKY/WX - SKY CONDITION AND SIGNIFICANT WEATHER.
      TMP - AIR TEMPERATURE.    DP   - DEWPOINT TEMPERATURE.
      RH  - RELATIVE HUMIDITY.  PRES - PRESSURE.
      HX  - HEAT INDEX.         WCI  - WIND CHILL INDEX.
$


USA.gov is the U.S. government's official web portal to all federal, state and local government web resources and services.